Weather History for St. Johns, AZ

Change the Weather History Date:

Wednesday, November 6, 2013

  Actual Average (KSOW) Record (KSOW)
Temperature  
Mean Temperature 32 °F -  
Max Temperature 51 °F 55 °F 73 °F (1999)
Min Temperature 12 °F 35 °F 15 °F (2013)
Degree Days  
Heating Degree Days 34    
Moisture  
Dew Point 18 °F    
Average Humidity 54    
Maximum Humidity 85    
Minimum Humidity 5    
Precipitation  
Precipitation 0.00 in - - ()
Sea Level Pressure  
Sea Level Pressure 30.39 in    
Wind  
Wind Speed 3 mph (South)    
Max Wind Speed 8 mph    
Max Gust Speed -    
Visibility 10 miles    
Events      
Averages and records for this station are not official NWS values.
T = Trace of Precipitation, MM = Missing Value Source: NWS Daily Summary

Daily Weather History Graph

Daily Weather History Graph

Search for Another Location

Airport:

Trip Planner

Search our weather history database for the weather conditions in past years. The results will help you decide how hot, cold, wet, or windy it might be!

Date:

Astronomy

Nov. 06, 2013 Rise Set
Actual Time 6:42 AM MST 5:19 PM MST
Civil Twilight 6:16 AM MST 5:45 PM MST
Nautical Twilight 5:46 AM MST 6:15 PM MST
Astronomical Twilight 5:16 AM MST 6:44 PM MST
Moon 9:57 AM MST (11/6) 8:30 PM MST (11/6)
Length of Visible Light 11h 28m
Length of Day
10h 36m
Waxing Crescent, 14% of the Moon is Illuminated
Nov 6
Waxing Crescent
Nov 9
First Quarter
Nov 17
Full
Nov 25
Last Quarter
Dec 2
New

Hourly Weather History & Observations

Time (MST) Temp. Windchill Dew Point Humidity Pressure Visibility Wind Dir Wind Speed Gust Speed Precip Events Conditions
12:54 AM 28.0 °F - 21.9 °F 78% 30.29 in 10.0 mi Calm Calm - N/A   Clear
1:54 AM 26.1 °F 21.9 °F 21.0 °F 81% 30.30 in 10.0 mi South 3.5 mph - N/A   Clear
2:54 AM 26.1 °F 18.4 °F 19.9 °F 78% 30.30 in 10.0 mi South 6.9 mph - N/A   Clear
3:54 AM 26.1 °F 19.4 °F 19.0 °F 75% 30.30 in 10.0 mi South 5.8 mph - N/A   Clear
4:54 AM 21.9 °F - 18.0 °F 85% 30.35 in 10.0 mi Calm Calm - N/A   Clear
5:54 AM 21.9 °F 17.2 °F 18.0 °F 85% 30.39 in 10.0 mi WSW 3.5 mph - N/A   Clear
6:54 AM 21.9 °F - 17.1 °F 82% 30.42 in 10.0 mi Calm Calm - N/A   Clear
7:54 AM 26.1 °F 21.9 °F 21.0 °F 81% 30.44 in 10.0 mi South 3.5 mph - N/A   Clear
8:54 AM 30.9 °F - 21.0 °F 67% 30.45 in 10.0 mi Calm Calm - N/A   Clear
9:54 AM 35.1 °F 32.2 °F 25.0 °F 67% 30.45 in 10.0 mi Variable 3.5 mph - N/A   Clear
10:54 AM 39.0 °F 36.8 °F 23.0 °F 53% 30.43 in 10.0 mi Variable 3.5 mph - N/A   Clear
11:54 AM 43.0 °F - 19.9 °F 40% 30.40 in 10.0 mi Calm Calm - N/A   Clear
12:54 PM 46.0 °F 42.5 °F 19.9 °F 35% 30.38 in 10.0 mi NW 6.9 mph - N/A   Clear
1:54 PM 48.9 °F - 19.0 °F 31% 30.35 in 10.0 mi Variable 3.5 mph - N/A   Clear
2:54 PM 51.1 °F - 17.1 °F 26% 30.34 in 10.0 mi North 4.6 mph - N/A   Clear
3:54 PM 52.0 °F - 12.0 °F 20% 30.33 in 10.0 mi North 4.6 mph - N/A   Clear
4:54 PM 51.1 °F - 19.0 °F 28% 30.35 in 10.0 mi Calm Calm - N/A   Clear
5:54 PM 42.1 °F 40.2 °F 26.1 °F 53% 30.40 in 10.0 mi WSW 3.5 mph - N/A   Clear
6:54 PM 39.9 °F - 26.1 °F 58% 30.42 in 10.0 mi Calm Calm - N/A   Clear
7:54 PM 37.0 °F 32.4 °F 24.1 °F 59% 30.43 in 10.0 mi South 5.8 mph - N/A   Clear
8:54 PM 36.0 °F 31.1 °F 23.0 °F 59% 30.44 in 10.0 mi South 5.8 mph - N/A   Clear
9:54 PM 34.0 °F 29.8 °F 23.0 °F 64% 30.44 in 10.0 mi South 4.6 mph - N/A   Clear
10:54 PM 34.0 °F 28.8 °F 21.9 °F 61% 30.43 in 10.0 mi South 5.8 mph - N/A   Clear
11:54 PM 32.0 °F 25.6 °F 23.0 °F 69% 30.41 in 10.0 mi South 6.9 mph - N/A   Clear